User: anonymous   Login
Location: Bagnara
(41.0500°N, 14.7833°E)
Time: 00:08:11
(UTC+00:00)
Language:

ARIANE 5 R/B - Orbit

View from above orbital plane
View from above orbital plane
View from above satellite
View from above satellite

Ground track
Ground track

The orbit data is extracted from the following two-line orbital elements,

1 27387U 02009B   21262.37594597 -.00000011  00000-0  11519-4 0  9994
2 27387  98.6703 223.1500 0031933 199.5106 160.4860 14.36025690 24709
Epoch (UTC): 19 September 2021 09:01:21
Eccentricity: 0.0031933
inclination: 98.6703°
perigee height: 749 km
apogee height: 794 km
right ascension of ascending node: 223.1500°
argument of perigee: 199.5106°
revolutions per day: 14.36025690
mean anomaly at epoch: 160.4860°
orbit number at epoch: 2470

The dashed part of the orbit path shows where the satellite is in the earth's shadow,  

DLR